This demonstration page uses our WeatherBlox Daily Observations layout. Learn more.

Left ArrowRight Arrow

41.12389, -100.76542

Hourly Observations for March 27, 2019

Temp ( °F °C ) Dew Point ( °F °C ) Humidity (%) Winds ( mph kmh ) Pressure ( in mb ) Visibility ( mi km ) Precip ( " mm )
12:53 am 00:53 Clear 52 11.1 44 6.7 75 75 VRB 5 7 29.96 1015 10 16 0.00 0.00
1:53 am 01:53 Clear 50 10 44 6.7 80 80 SSE 10 17 29.94 1014 10 16 0.00 0.00
2:53 am 02:53 Clear 50 10 44 6.7 80 80 SE 7 11 29.92 1013 10 16 0.00 0.00
3:53 am 03:53 Clear 46 7.8 42 5.6 86 86 SSE 7 11 29.90 1013 10 16 0.00 0.00
4:53 am 04:53 Clear 41 5 39 3.9 93 93 E 5 7 29.89 1012 10 16 0.00 0.00
5:53 am 05:53 Clear 39 3.9 38 3.3 96 96 E 3 6 29.89 1012 7 11 0.00 0.00
6:53 am 06:53 Clear with Mist and Fog 38 3.3 36 2.2 93 93 W 3 6 29.89 1012 5 8 0.00 0.00
7:53 am 07:53 Sunny with Mist and Fog 39 3.9 37 2.8 93 93 NW 3 6 29.91 1013 4 6 0.00 0.00
8:53 am 08:53 Sunny with Mist and Fog 42 5.6 40 4.4 92 92 NNW 3 6 29.93 1013 3 5 0.00 0.00
9:53 am 09:53 Sunny 49 9.4 44 6.7 83 83 WNW 7 11 29.92 1013 10 16 0.00 0.00
10:53 am 10:53 Sunny 53 11.7 45 7.2 74 74 undefined N/A 29.93 1013 10 16 0.00 0.00
11:53 am 11:53 Sunny 60 15.6 46 7.8 60 60 NW 8 13 29.93 1014 10 16 0.00 0.00
12:53 pm 12:53 Sunny 69 20.6 42 5.6 38 38 N 8 13 29.90 1012 10 16 0.00 0.00
1:53 pm 13:53 Sunny 71 21.7 33 0.6 25 25 NNW 9 15 29.89 1012 10 16 0.00 0.00
2:53 pm 14:53 Sunny 73 22.8 30 -1.1 20 20 NNW 14 22 29.87 1012 10 16 0.00 0.00
3:53 pm 15:53 Sunny 74 23.3 30 -1.1 20 20 NNW 8 13 29.87 1012 10 16 0.00 0.00
4:53 pm 16:53 Sunny 76 24.4 29 -1.7 18 18 NNW 10 17 29.88 1012 10 16 0.00 0.00
5:53 pm 17:53 Sunny 72 22.2 29 -1.7 20 20 NNE 9 15 29.89 1012 10 16 0.00 0.00
6:53 pm 18:53 Sunny 70 21.1 31 -0.6 23 23 NE 7 11 29.91 1013 10 16 0.00 0.00
7:53 pm 19:53 Sunny 58 14.4 32 0 38 38 ENE 7 11 29.94 1014 10 16 0.00 0.00
8:53 pm 20:53 Clear 54 12.2 34 1.1 47 47 ENE 8 13 29.96 1015 10 16 0.00 0.00
9:53 pm 21:53 Clear 54 12.2 38 3.3 55 55 ENE 13 20 29.98 1015 10 16 0.00 0.00
10:53 pm 22:53 Clear 49 9.4 40 4.4 71 71 ENE 9 15 30.00 1016 10 16 0.00 0.00
11:53 pm 23:53 Clear 48 8.9 40 4.4 74 74 ENE 15 24 29.98 1015 10 16 0.00 0.00

Powered by AerisWeather